Regional Weather Roundup
Issued by NWS

Home | Current Version | Previous Version | Graphics & Text | Print | Product List | Glossary On
Versions: 1 2 3 4 5 6 7 8 9 10 11 12 13 14 15 16 17 18 19 20 21 22 23 24 25 26 27 28 29 30 31 32 33 34 35 36 37 38 39 40 41 42 43 44 45 46 47 48 49 50
791
ASUS43 KBIS 020910
RWRND

NORTH DAKOTA REGIONAL WEATHER ROUNDUP
NATIONAL WEATHER SERVICE BISMARCK ND
400 AM CDT MON MAY 02 2016

NOTE: "FAIR" INDICATES FEW OR NO CLOUDS BELOW 12,000 FEET WITH NO
SIGNIFICANT WEATHER AND/OR OBSTRUCTIONS TO VISIBILITY.


NDZ001>003-009>011-017-021000-
NORTHWEST NORTH DAKOTA

CITY           SKY/WX    TMP DP  RH WIND       PRES   REMARKS
WILLISTON      CLOUDY    52  34  50 W17       30.06F
MINOT          CLOUDY    59  30  33 SW10      30.03R
MINOT AFB      MOCLDY    55  34  45 N2        30.02R
$$

NDZ018>021-031>035-040>046-021000-
SOUTHWEST NORTH DAKOTA

CITY           SKY/WX    TMP DP  RH WIND       PRES   REMARKS
BISMARCK       CLOUDY    44  32  62 CALM      30.09F
DICKINSON      MOCLDY    39  30  70 W12       30.10F
GARRISON         N/A     48  33  56 SW9       30.04F
HETTINGER ARPT PTCLDY    35  29  78 NW5       30.14F
$$

NDZ004>008-012>016-024-026-027-054-021000-
NORTHEAST NORTH DAKOTA

CITY           SKY/WX    TMP DP  RH WIND       PRES   REMARKS
GRAND FORKS    MOCLDY    42  32  67 S6        30.06F
GRND FRKS AFB  CLOUDY    46  28  49 SW6       30.06F
DEVILS LAKE    CLOUDY    50  34  54 SW8       30.07F
$$

NDZ022-023-025-028>030-036>039-047>053-021000-
SOUTHEAST NORTH DAKOTA

CITY           SKY/WX    TMP DP  RH WIND       PRES   REMARKS
FARGO          MOCLDY    43  30  60 S3        30.08F
JAMESTOWN      CLOUDY    47  32  56 CALM      30.08F
$$





USA.gov is the U.S. government's official web portal to all federal, state and local government web resources and services.